FW2418 Weather Reports


time (UTC)temp
C
wind
direction
speed
KPH
gust
KPH
rain 1hr
cm
rain 24hr
cm
rain mn
cm
humidity
%
barometer
mb
20260505074351 13 129 0.0 0.0 0.00 0.00 0.00 96 1012.6
20260505073350 13 128 0.0 0.0 0.00 0.00 0.00 96 1012.6
20260505072349 13 128 0.0 0.0 0.00 0.00 0.00 96 1012.6
20260505071348 13 128 0.0 0.0 0.00 0.00 0.00 96 1012.6
20260505070316 14 128 0.0 0.0 0.00 0.00 0.00 96 1012.6
20260505065315 14 128 0.0 0.0 0.00 0.00 0.00 96 1012.6
20260505064243 14 128 0.0 0.0 0.00 0.00 0.00 95 1012.9
20260505063242 14 128 0.0 0.0 0.00 0.00 0.00 95 1012.9
20260505062241 15 129 0.0 0.0 0.00 0.00 0.00 95 1012.9
20260505061240 15 129 0.0 0.0 0.00 0.00 0.00 95 1012.9
20260505060239 15 128 0.0 0.0 0.00 0.00 0.00 95 1012.9
20260505055207 15 128 0.0 0.0 0.00 0.00 0.00 94 1013.3
20260505054206 15 129 0.0 0.0 0.00 0.00 0.00 94 1013.3
20260505053205 15 129 0.0 0.0 0.00 0.00 0.00 94 1013.6
20260505052205 15 129 0.0 0.0 0.00 0.00 0.00 94 1013.6
20260505051132 15 128 0.0 0.0 0.00 0.00 0.00 93 1014.0
20260505050132 15 129 0.0 0.0 0.00 0.00 0.00 93 1014.0
20260505041128 16 129 0.0 0.0 0.00 0.00 0.00 89 1014.0
20260505040127 16 128 0.0 0.0 0.00 0.00 0.00 89 1014.0
20260505035126 16 129 0.0 0.0 0.00 0.00 0.00 88 1014.3
20260505034053 16 128 0.0 0.0 0.00 0.00 0.00 86 1014.3
20260505033053 17 129 0.0 0.0 0.00 0.00 0.00 86 1014.3
20260505032021 17 129 0.0 0.0 0.00 0.00 0.00 85 1014.3
20260505031020 17 128 0.0 0.0 0.00 0.00 0.00 82 1014.6
20260505030019 18 129 0.0 1.6 0.00 0.00 0.00 81 1014.3
20260505025019 18 128 0.0 1.6 0.00 0.00 0.00 80 1014.3
20260505024018 18 128 0.0 0.0 0.00 0.00 0.00 79 1014.6
20260505023017 18 128 0.0 1.6 0.00 0.00 0.00 78 1014.6
20260505022016 18 128 0.0 1.6 0.00 0.00 0.00 77 1014.6
20260505021015 18 131 0.0 1.6 0.00 0.00 0.00 77 1014.6
20260505020015 18 131 0.0 1.6 0.00 0.00 0.00 77 1014.3
20260505015013 19 131 0.0 0.0 0.00 0.00 0.00 76 1014.3
20260505014012 19 131 0.0 0.0 0.00 0.00 0.00 75 1014.0
20260505013012 19 131 0.0 1.6 0.00 0.00 0.00 74 1014.0
20260505012011 20 131 0.0 1.6 0.00 0.00 0.00 73 1014.0
20260505011010 20 131 0.0 1.6 0.00 0.00 0.00 72 1013.6
20260505010009 20 131 0.0 1.6 0.00 0.00 0.00 70 1014.0
20260505005008 21 131 0.0 3.2 0.00 0.00 0.00 69 1013.6
20260505004007 21 132 1.6 6.4 0.00 0.00 0.00 67 1013.6
20260505003006 21 125 1.6 6.4 0.00 0.00 0.00 66 1013.6
20260505002005 21 128 0.0 8.0 0.00 0.00 0.00 65 1013.6
20260505001004 22 120 3.2 9.7 0.00 0.00 0.00 64 1013.3
20260505000003 22 125 1.6 9.7 0.00 0.00 0.00 63 1013.3
20260504235002 22 134 3.2 9.7 0.00 0.00 0.00 62 1013.3
20260504233930 22 105 1.6 11.3 0.00 0.00 0.00 61 1012.9
20260504232929 23 116 4.8 12.9 0.00 0.00 0.00 60 1012.9
20260504231928 23 123 3.2 12.9 0.00 0.00 0.00 60 1012.9
20260504230927 23 110 3.2 12.9 0.00 0.00 0.00 60 1012.9
20260504225926 23 96 6.4 11.3 0.00 0.00 0.00 58 1012.9
20260504224925 23 119 6.4 12.9 0.00 0.00 0.00 58 1012.9
20260504223924 24 57 3.2 9.7 0.00 0.00 0.00 57 1012.9
20260504222923 24 106 3.2 14.5 0.00 0.00 0.00 57 1012.9
20260504221922 24 47 3.2 9.7 0.00 0.00 0.00 56 1012.9
20260504220921 24 87 3.2 9.7 0.00 0.00 0.00 56 1012.9
20260504215849 25 54 3.2 9.7 0.00 0.00 0.00 55 1012.9
20260504214745 25 79 3.2 11.3 0.00 0.00 0.00 56 1012.9
20260504213744 25 137 6.4 12.9 0.00 0.00 0.00 54 1012.9
20260504212744 25 111 4.8 11.3 0.00 0.00 0.00 54 1012.9
20260504211711 25 37 6.4 20.9 0.00 0.00 0.00 53 1012.9
20260504210711 25 67 4.8 22.5 0.00 0.00 0.00 53 1013.3
20260504205710 26 108 6.4 20.9 0.00 0.00 0.00 52 1012.9
20260504204709 26 27 4.8 14.5 0.00 0.00 0.00 51 1012.9
20260504203636 26 60 3.2 16.1 0.00 0.00 0.00 50 1012.9
20260504202605 26 114 3.2 9.7 0.00 0.00 0.00 50 1012.9
20260504201532 26 110 4.8 11.3 0.00 0.00 0.00 50 1012.9
20260504200532 26 103 3.2 11.3 0.00 0.00 0.00 52 1013.3
20260504195530 26 71 4.8 16.1 0.00 0.00 0.00 50 1013.3
20260504194529 26 85 3.2 16.1 0.00 0.00 0.00 51 1013.6
20260504193528 27 54 4.8 14.5 0.00 0.00 0.00 50 1013.3
20260504192527 27 90 4.8 12.9 0.00 0.00 0.00 50 1013.6
20260504191526 27 127 3.2 14.5 0.00 0.00 0.00 49 1013.6
20260504190524 27 106 4.8 16.1 0.00 0.00 0.00 48 1014.0
20260504185524 27 34 4.8 14.5 0.00 0.00 0.00 49 1014.0
20260504184523 27 52 6.4 17.7 0.00 0.00 0.00 50 1014.0
20260504183522 27 55 4.8 14.5 0.00 0.00 0.00 50 1014.3
20260504182521 27 74 6.4 14.5 0.00 0.00 0.00 50 1014.3
20260504181521 27 148 4.8 14.5 0.00 0.00 0.00 49 1014.7
20260504180448 27 30 6.4 14.5 0.00 0.00 0.00 50 1014.7
20260504175447 26 38 4.8 16.1 0.00 0.00 0.00 51 1014.6
20260504174447 27 53 4.8 17.7 0.00 0.00 0.00 51 1014.6
20260504173446 27 33 4.8 16.1 0.00 0.00 0.00 50 1014.7
20260504172342 26 100 4.8 12.9 0.00 0.00 0.00 50 1014.7
20260504171341 26 36 3.2 12.9 0.00 0.00 0.00 53 1014.6
20260504170339 27 54 3.2 12.9 0.00 0.00 0.00 51 1014.7
20260504160334 26 9 3.2 19.3 0.00 0.00 0.00 50 1015.3
20260504150154 24 68 1.6 17.7 0.00 0.00 0.00 57 1015.7
20260504141119 24 23 3.2 12.9 0.00 0.00 0.00 57 1015.3
20260504140118 24 28 4.8 16.1 0.00 0.00 0.00 56 1015.3
20260504120145 17 36 1.6 6.4 0.00 0.00 0.00 88 1014.6
20260504081643 15 16 0.0 0.0 0.00 0.00 0.00 94 1013.9
20260504080642 15 16 0.0 0.0 0.00 0.00 0.00 93 1013.9